[[{"header":{"parameterUnit":"m.s-1","parameterCategory":1,"la1":30.2991,"la2":30.254,"lo1":-89.0895,"lo2":-89.0444,"dy":0.0017,"dx":0.0017,"nx":28,"ny":28,"refTime":"2025-08-19T21:00:00:Z","depth":0,"parameterNumber":2,"parameterNumberName":"U-component_of_WINDS"},"data":[0,0,0,0,0,0,0,0,0,0,0,0,0,0,0,0,0,0,0,0,0,0,0,0,0,0,0,0,0,0,0,0,0,0,0,0,0,0,0,0,0,0,0,0,0,0,0,0,0,0,0,0,0,0,0,0,0,0,-1.2845,-1.2845,0,-1.2888,-1.2888,-1.2889,-1.2882,-1.2881,-1.288,-1.2879,-1.2927,-1.2929,-1.2931,0,0,0,0,0,0,0,0,0,0,0,0,0,-1.2759,-1.2761,-1.2844,-1.2845,-1.2846,-1.2888,-1.2889,-1.2889,-1.2882,-1.2881,-1.288,-1.2879,-1.2926,-1.2928,-1.2931,0,0,0,0,0,0,0,0,0,0,0,0,0,-1.2799,-1.2761,-1.2844,-1.2847,-1.2848,-1.2888,-1.2889,-1.2889,-1.2882,-1.2881,-1.288,-1.2879,-1.2925,-1.2928,-1.2931,-1.2972,0,0,-1.294,-1.2942,0,0,0,0,0,0,0,0,-1.2796,-1.2802,-1.2846,-1.2847,-1.2848,-1.2878,-1.2876,-1.2917,-1.2882,-1.2869,-1.2879,-1.2878,-1.2912,-1.2916,-1.2927,-1.2975,-1.2977,-1.294,-1.2942,-1.2944,-1.2944,0,0,0,0,0,0,0,-1.2794,-1.28,-1.2862,-1.2847,-1.2848,-1.2847,-1.2852,-1.2884,-1.2896,-1.287,-1.287,-1.2875,-1.2912,-1.2924,-1.2928,-1.2977,-1.294,-1.2943,-1.2945,-1.2946,-1.3063,-1.3065,0,0,0,0,0,0,-1.279,-1.2798,-1.286,-1.2863,-1.2819,-1.285,-1.2855,-1.287,-1.2896,-1.2899,-1.2876,-1.2874,-1.2919,-1.2924,-1.2929,-1.298,-1.2944,-1.2946,-1.2948,-1.3062,-1.3064,-1.3065,0,0,0,0,0,0,-1.2788,-1.2795,-1.2859,-1.283,-1.2838,-1.2852,-1.2869,-1.2871,-1.2883,-1.29,-1.2903,-1.2885,-1.2918,-1.2925,-1.2962,-1.2981,-1.2948,-1.295,-1.306,-1.3062,-1.3064,-1.3081,0,0,0,0,0,0,-1.2785,-1.2795,-1.2809,-1.2831,-1.284,-1.2889,-1.287,-1.2873,-1.2887,-1.2886,-1.291,-1.2912,-1.2918,-1.2957,-1.2965,-1.2985,-1.2953,-1.3059,-1.3061,-1.3064,-1.3079,-1.3083,-1.3087,0,0,0,0,0,-1.2782,-1.2813,-1.281,-1.2818,-1.2858,-1.289,-1.2896,-1.2901,-1.2889,-1.2905,-1.2916,-1.2912,-1.2978,-1.2961,-1.297,-1.2991,-1.3057,-1.3061,-1.3063,-1.3077,-1.3082,-1.3087,0,0,0,0,0,0,-1.2794,-1.2816,-1.2813,-1.2851,-1.2869,-1.2889,-1.2909,-1.2906,-1.2929,-1.2927,-1.2933,-1.2938,-1.2976,-1.2987,-1.2968,-1.3033,-1.3016,-1.3021,-1.3024,-1.3029,-1.3033,-1.3029,-1.2955,0,0,0,0,0,-1.2801,-1.2824,-1.2842,-1.2874,-1.2883,-1.2894,-1.2909,-1.2911,-1.293,-1.2938,-1.2952,-1.2972,-1.2998,-1.3014,-1.3038,-1.3081,-1.3086,-1.31,-1.3104,-1.3107,-1.3111,-1.3135,-1.3141,-1.3075,-1.3075,-1.3075,0,0,-1.2816,-1.283,-1.2845,-1.2877,-1.2891,-1.2916,-1.2901,-1.2928,-1.2947,-1.2942,-1.2978,-1.2989,-1.3012,-1.3052,-1.307,-1.3062,-1.3131,-1.3111,-1.3114,-1.3116,-1.3139,-1.3145,-1.3151,-1.3077,-1.3077,-1.3076,0,0,-1.2855,-1.2868,-1.2896,-1.2911,-1.2932,-1.294,-1.2947,-1.2968,-1.2975,-1.3011,-1.3008,-1.3032,-1.3075,-1.3092,-1.3106,-1.3154,-1.315,-1.3162,-1.3183,-1.3207,-1.3212,-1.3217,-1.3234,-1.324,-1.3166,-1.3166,-1.3166,0,-1.287,-1.2907,-1.2911,-1.2938,-1.2953,-1.295,-1.298,-1.2994,-1.3023,-1.3034,-1.3025,-1.308,-1.3095,-1.3139,-1.3151,-1.3162,-1.3171,-1.3158,-1.3211,-1.3215,-1.322,-1.3236,-1.3243,-1.3167,-1.3167,-1.3166,-1.3166,0,-1.2925,-1.2951,-1.2971,-1.2998,-1.3015,-1.3044,-1.3054,-1.3071,-1.3073,-1.3082,-1.3119,-1.3137,-1.3166,-1.3177,-1.3179,-1.3222,-1.3216,-1.3209,-1.3192,-1.3227,-1.3243,-1.3249,-1.3168,-1.3168,-1.3168,-1.3167,0,0,-1.2972,-1.3002,-1.3009,-1.3022,-1.3046,-1.3066,-1.3096,-1.3123,-1.3138,-1.3158,-1.3183,-1.3221,-1.3215,-1.3231,-1.3235,-1.3256,-1.3293,-1.3246,-1.3247,-1.3254,-1.3342,-1.3347,-1.3354,-1.3292,-1.3293,-1.3294,-1.334,0,-1.3013,-1.3062,-1.3068,-1.3113,-1.3137,-1.3136,-1.3161,-1.318,-1.319,-1.3213,-1.3225,-1.3251,-1.3241,-1.325,-1.3271,-1.3284,-1.3311,-1.3281,-1.3316,-1.3317,-1.3309,-1.3362,-1.3367,-1.341,-1.3347,-1.3348,-1.3348,0,-1.3067,-1.3089,-1.3136,-1.3158,-1.3168,-1.3191,-1.3217,-1.3238,-1.326,-1.3266,-1.3285,-1.3287,-1.3318,-1.3301,-1.3346,-1.3325,-1.334,-1.3349,-1.3351,-1.3354,-1.3334,-1.3366,-1.3424,-1.343,-1.3358,-1.3357,-1.3357,0,-1.3097,-1.3138,-1.3171,-1.3182,-1.3208,-1.3224,-1.3236,-1.3257,-1.3273,-1.3297,-1.3308,-1.3335,-1.335,-1.3371,-1.3381,-1.3368,-1.3425,-1.3409,-1.3432,-1.3431,-1.3443,-1.3442,-1.3503,-1.3454,-1.3453,-1.3453,-1.3453,0,-1.3142,-1.3171,-1.3184,-1.3205,-1.3238,-1.3245,-1.3278,-1.329,-1.3308,-1.3332,-1.3333,-1.3356,-1.3368,-1.3393,-1.3401,-1.3437,-1.3444,-1.345,-1.3452,-1.345,-1.3449,-1.3459,-1.3456,-1.3455,-1.3455,-1.3454,-1.3454,0,-1.318,-1.319,-1.3226,-1.3248,-1.3255,-1.3278,-1.3298,-1.3318,-1.3329,-1.3359,-1.3367,-1.3383,-1.3413,-1.3425,-1.3462,-1.3467,-1.3508,-1.3508,-1.35,-1.3501,-1.3523,-1.352,-1.3592,-1.3602,-1.3546,-1.3547,-1.3547,0,-1.3207,-1.3229,-1.3254,-1.3269,-1.3282,-1.3307,-1.3324,-1.3332,-1.335,-1.3377,-1.3395,-1.3424,-1.3448,-1.3496,-1.3512,-1.3541,-1.3541,-1.3564,-1.3545,-1.3542,-1.3541,-1.3539,-1.3542,-1.3567,-1.3568,-1.3568,-1.3569,0,-1.3256,-1.326,-1.3283,-1.3309,-1.3328,-1.3349,-1.3369,-1.3382,-1.3395,-1.3415,-1.3444,-1.3463,-1.35,-1.353,-1.3559,-1.3573,-1.3574,-1.3575,-1.3581,-1.3579,-1.3574,-1.3577,-1.3509,-1.3573,-1.3572,-1.3572,-1.3572,-1.3572,-1.3289,-1.3309,-1.333,-1.3356,-1.3372,-1.3391,-1.3412,-1.3425,-1.3449,-1.3479,-1.3484,-1.3516,-1.3539,-1.3578,-1.3594,-1.362,-1.3614,-1.3624,-1.3626,-1.3629,-1.363,-1.357,-1.3626,-1.3626,-1.3626,-1.3625,-1.3625,0,-1.3338,-1.3351,-1.3375,-1.3403,-1.3424,-1.3422,-1.3445,-1.3463,-1.349,-1.3511,-1.3535,-1.357,-1.3599,-1.3618,-1.3647,-1.3665,-1.3666,-1.3672,-1.3671,-1.3674,-1.3633,-1.3624,-1.3671,-1.3671,-1.3671,-1.3671,-1.3671,-1.3671,-1.3365,-1.3399,-1.3406,-1.3448,-1.3461,-1.3492,-1.3505,-1.3523,-1.354,-1.3579,-1.3602,-1.3614,-1.3635,-1.3666,-1.3693,-1.3698,-1.3709,-1.3716,-1.3721,-1.3682,-1.3677,-1.3673,-1.3664,-1.3718,-1.3718,-1.3759,-1.376,-1.376]},{"header":{"parameterUnit":"m.s-1","parameterCategory":1,"la1":30.2991,"la2":30.254,"lo1":-89.0895,"lo2":-89.0444,"dy":0.0017,"dx":0.0017,"nx":28,"ny":28,"refTime":"2025-08-19T21:00:00:Z","depth":0,"parameterNumber":3,"parameterNumberName":"V-component_of_WINDS"},"data":[0,0,0,0,0,0,0,0,0,0,0,0,0,0,0,0,0,0,0,0,0,0,0,0,0,0,0,0,0,0,0,0,0,0,0,0,0,0,0,0,0,0,0,0,0,0,0,0,0,0,0,0,0,0,0,0,0,0,3.5745,3.5745,0,3.5774,3.5774,3.5774,3.5791,3.5791,3.5792,3.5792,3.5818,3.5819,3.582,0,0,0,0,0,0,0,0,0,0,0,0,0,3.5701,3.5702,3.5745,3.5745,3.5745,3.5774,3.5774,3.5774,3.5791,3.5791,3.5792,3.5792,3.5818,3.5819,3.582,0,0,0,0,0,0,0,0,0,0,0,0,0,3.5724,3.5702,3.5745,3.5757,3.5759,3.5774,3.5774,3.5774,3.5791,3.5792,3.5792,3.5792,3.5818,3.5819,3.582,3.5823,0,0,3.5823,3.5823,0,0,0,0,0,0,0,0,3.5722,3.5725,3.5755,3.5757,3.5758,3.5779,3.5768,3.5791,3.5791,3.5779,3.5792,3.5792,3.5805,3.5807,3.5812,3.5824,3.5825,3.5823,3.5823,3.5824,3.5824,0,0,0,0,0,0,0,3.5721,3.5724,3.5756,3.5755,3.5757,3.5761,3.5764,3.5773,3.5791,3.578,3.5781,3.5785,3.5806,3.5811,3.5813,3.5826,3.5823,3.5824,3.5824,3.5824,3.5842,3.5842,0,0,0,0,0,0,3.5718,3.5723,3.5755,3.5757,3.574,3.5761,3.5765,3.5772,3.5791,3.5794,3.5785,3.5785,3.5809,3.5812,3.5814,3.5819,3.5824,3.5825,3.5825,3.5842,3.5842,3.5842,0,0,0,0,0,0,3.5717,3.572,3.5754,3.574,3.5745,3.5762,3.577,3.5773,3.5778,3.5794,3.5797,3.5787,3.581,3.5812,3.5821,3.582,3.5825,3.5826,3.5842,3.5842,3.5842,3.5829,0,0,0,0,0,0,3.5715,3.572,3.5722,3.574,3.5745,3.5761,3.577,3.5773,3.578,3.5781,3.5797,3.58,3.581,3.5819,3.5822,3.5822,3.5827,3.5842,3.5842,3.5842,3.583,3.5829,3.5828,0,0,0,0,0,3.5714,3.5717,3.5722,3.5726,3.5749,3.5761,3.5764,3.5777,3.578,3.5782,3.5792,3.5799,3.582,3.582,3.5823,3.5823,3.5842,3.5842,3.5842,3.583,3.5829,3.5828,0,0,0,0,0,0,3.5697,3.5719,3.5726,3.5735,3.5746,3.5764,3.5767,3.5775,3.5785,3.5785,3.5799,3.5803,3.5809,3.5817,3.5817,3.5827,3.5832,3.5832,3.5822,3.5821,3.582,3.5818,3.5827,0,0,0,0,0,3.5695,3.5704,3.5723,3.5729,3.5734,3.575,3.5756,3.5764,3.5776,3.5781,3.5792,3.5802,3.5811,3.5816,3.5825,3.5831,3.5834,3.5832,3.5831,3.583,3.583,3.5834,3.5833,3.5841,3.5841,3.5841,0,0,3.569,3.5703,3.5708,3.5726,3.5736,3.5744,3.5754,3.5762,3.5768,3.5782,3.5791,3.5799,3.5811,3.5818,3.5822,3.5825,3.5829,3.583,3.5829,3.583,3.5834,3.5833,3.5832,3.5841,3.5841,3.5841,0,0,3.5685,3.5696,3.5702,3.5712,3.5727,3.5737,3.5739,3.5756,3.5762,3.5771,3.5782,3.5788,3.5803,3.5812,3.5818,3.5816,3.5823,3.5818,3.5813,3.5816,3.5816,3.5815,3.5814,3.5814,3.5818,3.5818,3.5818,0,3.5676,3.569,3.5704,3.5713,3.572,3.5734,3.574,3.5748,3.5765,3.5769,3.5772,3.5791,3.58,3.581,3.5809,3.5814,3.5815,3.5817,3.5815,3.5814,3.5814,3.5813,3.5813,3.5818,3.5818,3.5818,3.5818,0,3.5679,3.5689,3.5692,3.5709,3.5717,3.5724,3.5738,3.5744,3.5751,3.5761,3.577,3.5781,3.5793,3.5796,3.5803,3.5806,3.5807,3.5812,3.5817,3.5812,3.5812,3.5812,3.5817,3.5817,3.5817,3.5817,0,0,3.5665,3.569,3.5691,3.5698,3.5716,3.5723,3.573,3.5743,3.5747,3.5758,3.5764,3.5776,3.5781,3.5788,3.5796,3.5799,3.5797,3.5804,3.5804,3.5802,3.58,3.5796,3.5796,3.5801,3.5801,3.5801,3.5799,0,3.5662,3.5677,3.569,3.57,3.5709,3.5721,3.5728,3.5738,3.5747,3.5755,3.5764,3.5773,3.5779,3.5783,3.5787,3.5796,3.5796,3.5797,3.5806,3.5807,3.5803,3.5796,3.5792,3.5789,3.5799,3.5799,3.5799,0,3.5662,3.5673,3.5684,3.5701,3.5705,3.5711,3.5723,3.5731,3.5743,3.5749,3.5757,3.5765,3.5773,3.5777,3.5787,3.5787,3.5791,3.5796,3.5797,3.5798,3.5803,3.5797,3.5789,3.5789,3.5799,3.5799,3.5799,0,3.565,3.5668,3.5677,3.5684,3.5703,3.5707,3.5715,3.5727,3.5734,3.5744,3.5748,3.5758,3.5764,3.5772,3.5783,3.5785,3.5791,3.5796,3.5796,3.5796,3.5797,3.5797,3.5789,3.58,3.58,3.58,3.58,0,3.5646,3.5653,3.5673,3.5678,3.5685,3.5699,3.5706,3.5714,3.5725,3.5732,3.5743,3.5749,3.5763,3.577,3.5779,3.5786,3.5788,3.5793,3.5795,3.5792,3.5791,3.5795,3.5796,3.5799,3.5799,3.58,3.58,0,3.5635,3.5649,3.5659,3.5677,3.5682,3.5686,3.5701,3.5706,3.5716,3.5724,3.5727,3.5741,3.575,3.5762,3.5775,3.578,3.5786,3.5789,3.5782,3.5784,3.5783,3.5782,3.5778,3.5778,3.5788,3.5787,3.5787,0,3.5632,3.5637,3.5656,3.5662,3.567,3.5679,3.5686,3.5699,3.5706,3.572,3.5723,3.5734,3.5743,3.5756,3.5767,3.5777,3.5781,3.5778,3.5782,3.5779,3.5781,3.578,3.5781,3.5777,3.5777,3.5777,3.5777,0,3.5625,3.5631,3.5641,3.5654,3.5662,3.5672,3.5683,3.5686,3.5702,3.5709,3.5719,3.5726,3.5739,3.5749,3.576,3.5767,3.5774,3.5775,3.5776,3.5773,3.5769,3.5771,3.578,3.5776,3.5776,3.5776,3.5776,3.5776,3.5617,3.5623,3.5637,3.5648,3.5657,3.5667,3.5673,3.5683,3.5692,3.5705,3.5712,3.5721,3.5733,3.5748,3.5755,3.5762,3.5765,3.5766,3.5766,3.5766,3.5765,3.5768,3.5764,3.5764,3.5764,3.5764,3.5765,0,3.5611,3.5621,3.563,3.5645,3.5654,3.5661,3.5673,3.5679,3.5688,3.5698,3.5707,3.5718,3.5728,3.5739,3.5749,3.5753,3.5756,3.5755,3.5755,3.5756,3.5762,3.5761,3.5752,3.5752,3.5752,3.5752,3.5752,3.5752,3.5609,3.5618,3.5626,3.564,3.5649,3.566,3.5666,3.5674,3.5683,3.5695,3.5704,3.5712,3.5722,3.5733,3.5742,3.5745,3.5748,3.5746,3.575,3.5755,3.5756,3.5757,3.5756,3.5746,3.5746,3.5744,3.5744,3.5744]}]]